GSAT0217 (GALILEO 21)

Last updated on Tue Oct 28 2025 00:02:34 GMT+0000 (Coordinated Universal Time)

1 43057U 17079C 25299.48125739 .00000007 00000+0 00000+0 0 9994 2 43057 55.1470 227.9361 0003277 312.2680 47.7234 1.70473867 49007
UTC large
Height (km)
Speed (km/s)
/
Latitude / Longitude
Inclination (degrees)
Orbital Period (minutes)
Azimuth
Elevation
Range (km)
Doppler Factor

Next 0 passes for location: London (51.5072 / 0.1276)

Sorry there are no passes over London.